CW1756 Weather Reports


time (UTC)temp
F
wind
direction
speed
knots
gust
knots
rain 1hr
in
rain 24hr
in
rain mn
in
humidity
%
barometer
mb
20260507230725 60 360 3.5 9.6 0.00 0.00 0.00 44 1011.0
20260507220728 60 360 2.6 10.4 0.00 0.00 0.00 43 1010.1
20260507210722 64 360 3.5 14.8 0.00 0.00 0.00 40 1009.6
20260507200732 65 360 5.2 14.8 0.00 0.00 0.00 40 1009.9
20260507190737 64 360 2.6 17.4 0.00 0.00 0.00 41 1009.9
20260507180724 65 360 6.1 12.2 0.00 0.00 0.00 42 1010.0
20260507170719 63 360 5.2 13.9 0.00 0.00 0.00 46 1011.0
20260507160744 60 360 2.6 7.8 0.00 0.00 0.00 53 1011.7
20260507150738 58 360 1.7 7.0 0.00 0.00 0.00 61 1012.4
20260507140729 53 360 0.9 4.3 0.00 0.00 0.00 71 1013.4
20260507130745 51 360 3.5 9.6 0.00 0.01 0.00 77 1014.1
20260507120733 50 360 0.9 7.0 0.00 0.03 0.00 80 1014.2
20260507110727 50 360 2.6 7.0 0.00 0.04 0.00 79 1013.6
20260507100734 50 360 1.7 7.0 0.00 0.05 0.00 87 1012.8
20260507090724 50 360 0.0 2.6 0.00 0.05 0.00 88 1012.9
20260507080723 51 360 0.0 0.0 0.00 0.05 0.00 85 1012.7
20260507070721 51 360 0.0 0.9 0.00 0.05 0.00 83 1012.5
20260507060730 52 360 2.6 7.0 0.00 0.05 0.00 79 1012.9
20260507050731 52 360 6.1 10.4 0.00 0.05 0.00 84 1013.0
20260507040739 53 360 3.5 10.4 0.00 0.05 0.00 87 1012.2
20260507030730 55 360 1.7 7.0 0.00 0.05 0.05 87 1011.7
20260507020724 57 360 1.7 10.4 0.00 0.05 0.05 85 1011.7
20260507010750 58 360 2.6 11.3 0.00 0.05 0.05 82 1011.3
20260507000732 60 360 3.5 11.3 0.00 0.05 0.05 80 1012.1